Weather History for Mena, AR

Change the Weather History Date:

Sunday, March 2, 2014

  Actual Average (KFSM) Record (KFSM)
Temperature  
Mean Temperature 42 °F -  
Max Temperature 59 °F 56 °F 84 °F (1904)
Min Temperature 23 °F 35 °F 12 °F (1980)
Degree Days  
Heating Degree Days 24    
Moisture  
Dew Point 39 °F    
Average Humidity 99    
Maximum Humidity 100    
Minimum Humidity 86    
Precipitation  
Precipitation 1.44 in - - ()
Sea Level Pressure  
Sea Level Pressure 30.06 in    
Wind  
Wind Speed 1 mph (NNE)    
Max Wind Speed 9 mph    
Max Gust Speed -    
Visibility 4 miles    
Events Rain , Thunderstorm    
Averages and records for this station are not official NWS values.
T = Trace of Precipitation, MM = Missing Value Source: NWS Daily Summary

Daily Weather History Graph

Daily Weather History Graph

Search for Another Location

Airport:

Trip Planner

Search our weather history database for the weather conditions in past years. The results will help you decide how hot, cold, wet, or windy it might be!

Date:

Astronomy

Mar. 02, 2014 Rise Set
Actual Time 6:44 AM CST 6:13 PM CST
Civil Twilight 6:19 AM CST 6:38 PM CST
Nautical Twilight 5:50 AM CST 7:08 PM CST
Astronomical Twilight 5:21 AM CST 7:37 PM CST
Moon 7:21 AM CST (3/2) 8:04 PM CST (3/2)
Length of Visible Light 12h 19m
Length of Day
11h 29m
Waxing Crescent, 3% of the Moon is Illuminated
Mar 2
Waxing Crescent
Mar 8
First Quarter
Mar 16
Full
Mar 23
Last Quarter
Mar 30
New

Hourly Weather History & Observations

Time (CST) Temp. Windchill Dew Point Humidity Pressure Visibility Wind Dir Wind Speed Gust Speed Precip Events Conditions
12:15 AM 57.2 °F - 57.2 °F 100% 29.99 in 7.0 mi Calm Calm - N/A   Overcast
12:35 AM 57.2 °F - 57.2 °F 100% 29.98 in 7.0 mi Calm Calm - N/A   Overcast
12:55 AM 55.4 °F - 55.4 °F 100% 29.98 in 7.0 mi Calm Calm - N/A   Overcast
1:15 AM 59.0 °F - 59.0 °F 100% 29.98 in 7.0 mi Calm Calm - N/A   Overcast
1:35 AM 59.0 °F - 59.0 °F 100% 29.98 in 7.0 mi Calm Calm - N/A   Overcast
1:55 AM 59.0 °F - 59.0 °F 100% 29.98 in 7.0 mi Calm Calm - N/A   Overcast
2:15 AM 59.0 °F - 59.0 °F 100% 29.98 in 7.0 mi Calm Calm - N/A   Overcast
2:35 AM 59.0 °F - 59.0 °F 100% 29.97 in 7.0 mi Calm Calm - N/A   Overcast
2:55 AM 59.0 °F - 59.0 °F 100% 29.97 in 7.0 mi Calm Calm - N/A   Overcast
3:15 AM 59.0 °F - 59.0 °F 100% 29.97 in 7.0 mi Calm Calm - N/A   Overcast
3:35 AM 59.0 °F - 59.0 °F 100% 29.97 in 7.0 mi North 4.6 mph - N/A   Overcast
3:55 AM 59.0 °F - 59.0 °F 100% 29.98 in 7.0 mi Calm Calm - N/A   Overcast
4:15 AM 57.2 °F - 57.2 °F 100% 29.98 in 7.0 mi NW 4.6 mph - N/A   Drizzle
4:35 AM 53.6 °F - 53.6 °F 100% 29.99 in 5.0 mi West 5.8 mph - 0.01 in Rain Light Rain
4:55 AM 50.0 °F - 50.0 °F 100% 30.00 in 5.0 mi NW 3.5 mph - 0.03 in Rain Light Rain
5:15 AM 46.4 °F - 46.4 °F 100% 30.01 in 4.0 mi Calm Calm - 0.02 in Rain Heavy Rain
5:35 AM 44.6 °F 42.2 °F 44.6 °F 100% 30.02 in 3.0 mi NE 4.6 mph - 0.03 in   Drizzle
5:55 AM 42.8 °F - 42.8 °F 100% 30.03 in 2.5 mi Calm Calm - 0.03 in   Overcast
6:15 AM 41.0 °F - 41.0 °F 100% 30.03 in 2.0 mi Calm Calm - N/A   Light Drizzle
6:35 AM 39.2 °F - 39.2 °F 100% 30.05 in 2.5 mi Calm Calm - N/A   Light Drizzle
6:55 AM 39.2 °F - 39.2 °F 100% 30.06 in 2.0 mi Calm Calm - N/A   Light Drizzle
7:15 AM 37.4 °F 32.1 °F 37.4 °F 100% 30.06 in 4.0 mi NE 6.9 mph - N/A   Overcast
7:35 AM 37.4 °F 30.8 °F 37.4 °F 100% 30.08 in 4.0 mi NNE 9.2 mph - N/A   Overcast
7:55 AM 37.4 °F 31.4 °F 37.4 °F 100% 30.09 in 2.0 mi ENE 8.1 mph - N/A   Drizzle
8:15 AM 37.4 °F 32.1 °F 37.4 °F 100% 30.10 in 2.0 mi NE 6.9 mph - N/A   Light Drizzle
8:35 AM 35.6 °F 28.6 °F 35.6 °F 100% 30.10 in 4.0 mi ENE 9.2 mph - N/A   Overcast
8:55 AM 35.6 °F 30.7 °F 35.6 °F 100% 30.11 in 4.0 mi NE 5.8 mph - N/A   Overcast
9:15 AM 35.6 °F 31.7 °F 35.6 °F 100% 30.11 in 2.0 mi East 4.6 mph - N/A Rain Light Rain
9:35 AM 35.6 °F 29.9 °F 35.6 °F 100% 30.11 in 2.5 mi NE 6.9 mph - N/A   Light Drizzle
9:55 AM 35.6 °F 29.9 °F 35.6 °F 100% 30.11 in 2.0 mi NNE 6.9 mph - N/A   Drizzle
10:15 AM 35.6 °F 29.9 °F 35.6 °F 100% 30.10 in 2.5 mi NNE 6.9 mph - N/A Thunderstorm Unknown
10:35 AM 35.6 °F 31.7 °F 35.6 °F 100% 30.10 in 5.0 mi NNE 4.6 mph - N/A Thunderstorm Overcast
10:55 AM 35.6 °F - 35.6 °F 100% 30.10 in 7.0 mi Calm Calm - N/A Thunderstorm Unknown
11:15 AM 33.8 °F - 33.8 °F 100% 30.11 in 4.0 mi Calm Calm - 0.05 in Rain , Thunderstorm Rain
11:35 AM 33.8 °F - 33.8 °F 100% 30.09 in 4.0 mi Calm Calm - 0.08 in   Heavy Drizzle
11:55 AM 33.8 °F - 33.8 °F 100% 30.09 in 10.0 mi Calm Calm - 0.08 in   Overcast
12:15 PM 33.8 °F - 33.8 °F 100% 30.06 in 5.0 mi Calm Calm - N/A Rain , Thunderstorm Light Thunderstorms and Rain
12:35 PM 33.8 °F - 33.8 °F 100% 30.07 in 4.0 mi Calm Calm - N/A Rain , Thunderstorm Light Thunderstorms and Rain
12:55 PM 33.8 °F - 33.8 °F 100% 30.06 in 1.8 mi Calm Calm - 0.32 in Rain , Thunderstorm Heavy Thunderstorms and Rain
1:15 PM 33.8 °F - 33.8 °F 100% 30.06 in 4.0 mi Calm Calm - 0.06 in Rain , Thunderstorm Rain
1:35 PM 33.8 °F - 33.8 °F 100% 30.06 in 2.5 mi Calm Calm - 0.22 in Rain , Thunderstorm Heavy Thunderstorms and Rain
1:55 PM 33.8 °F - 33.8 °F 100% 30.06 in 7.0 mi Calm Calm - 0.23 in Rain , Thunderstorm Thunderstorms and Rain
2:15 PM 33.8 °F - 33.8 °F 100% 30.04 in 5.0 mi Calm Calm - 0.10 in Rain , Thunderstorm Light Thunderstorms and Rain
2:35 PM 33.8 °F - 33.8 °F 100% 30.04 in 10.0 mi Calm Calm - 0.10 in Rain , Thunderstorm Rain
2:55 PM 33.8 °F - 33.8 °F 100% 30.04 in 10.0 mi Calm Calm - 0.10 in Rain Light Rain
3:15 PM 33.8 °F - 33.8 °F 100% 30.03 in 10.0 mi Calm Calm - N/A Thunderstorm Overcast
3:35 PM 33.8 °F - 33.8 °F 100% 30.01 in 4.0 mi Calm Calm - N/A Rain , Thunderstorm Light Thunderstorms and Rain
3:55 PM 33.8 °F - 33.8 °F 100% 30.01 in 3.0 mi Calm Calm - 0.08 in Rain Light Rain
4:15 PM 33.8 °F - 33.8 °F 100% 30.02 in 4.0 mi Calm Calm - N/A Rain Light Rain
4:35 PM 33.8 °F - 33.8 °F 100% 30.02 in 5.0 mi Calm Calm - N/A   Overcast
4:55 PM 33.8 °F - 33.8 °F 100% 30.02 in 4.0 mi Calm Calm - N/A Rain , Thunderstorm Thunderstorms and Rain
5:15 PM 33.8 °F - 33.8 °F 100% 30.01 in 5.0 mi Calm Calm - N/A Thunderstorm Drizzle
5:35 PM 33.8 °F - 33.8 °F 100% 30.02 in 2.0 mi Calm Calm - 0.17 in Rain Rain
5:55 PM 33.8 °F - 33.8 °F 100% 30.03 in 2.0 mi Calm Calm - 0.25 in Rain Light Rain
6:15 PM 32.0 °F - 32.0 °F 100% 30.05 in 1.8 mi Calm Calm - 0.04 in Rain Rain
6:35 PM 32.0 °F - 32.0 °F 100% 30.06 in 2.0 mi Calm Calm - 0.13 in Rain Heavy Rain
6:55 PM 32.0 °F - 32.0 °F 100% 30.06 in 1.2 mi Calm Calm - 0.22 in Rain Rain
7:15 PM 33.8 °F - 33.8 °F 100% 30.07 in 1.2 mi Calm Calm - 0.05 in Rain Heavy Rain
7:35 PM 33.8 °F - 33.8 °F 100% 30.09 in 1.5 mi Calm Calm - 0.09 in Rain Light Rain
7:55 PM 32.0 °F - 32.0 °F 100% 30.11 in 0.8 mi Calm Calm - 0.10 in Rain Rain
8:15 PM 30.2 °F - 30.2 °F 100% 30.11 in 0.8 mi Calm Calm - N/A Rain Light Freezing Rain
8:35 PM 30.2 °F - 28.4 °F 93% 30.14 in 0.8 mi Calm Calm - N/A   Overcast
8:55 PM 30.2 °F - 28.4 °F 93% 30.13 in 0.8 mi Calm Calm - N/A   Overcast
9:15 PM 28.4 °F - 26.6 °F 93% 30.15 in 0.8 mi Calm Calm - N/A   Overcast
9:35 PM 28.4 °F - 26.6 °F 93% 30.16 in 1.0 mi Calm Calm - N/A   Overcast
9:55 PM 28.4 °F - 26.6 °F 93% 30.17 in 1.0 mi Calm Calm - N/A   Overcast
10:15 PM 26.6 °F - 23.0 °F 86% 30.17 in 1.0 mi Calm Calm - N/A   Overcast
10:35 PM 24.8 °F - 23.0 °F 93% 30.17 in 1.0 mi Calm Calm - N/A   Overcast
10:55 PM 24.8 °F - 23.0 °F 93% 30.20 in 1.0 mi Calm Calm - N/A   Overcast
11:55 PM 23.0 °F - 21.2 °F 93% 30.19 in 1.0 mi Calm Calm - N/A   Overcast